Weather History for Moab, UT

Change the Weather History Date:

Saturday, March 30, 2013

  Actual Average Record
Temperature  
Mean Temperature 55 °F 48 °F  
Max Temperature 72 °F 63 °F 82 °F (1971)
Min Temperature 38 °F 33 °F 19 °F (2007)
Degree Days  
Heating Degree Days 10 17  
Month to date heating degree days 567 621  
Since 1 July heating degree days 5497 5030  
Cooling Degree Days 0 0  
Month to date cooling degree days 0 0  
Year to date cooling degree days 0 0  
Growing Degree Days 5 (Base 50)    
Moisture  
Dew Point 25 °F    
Average Humidity 34    
Maximum Humidity 51    
Minimum Humidity 17    
Precipitation  
Precipitation 0.00 in 0.03 in 0.29 in (1970)
Month to date precipitation 0.06 0.75  
Year to date precipitation 0.69 1.91  
Sea Level Pressure  
Sea Level Pressure 30.03 in    
Wind  
Wind Speed 6 mph (West)    
Max Wind Speed 28 mph    
Max Gust Speed 35 mph    
Visibility 10 miles    
Events      
T = Trace of Precipitation, MM = Missing Value Source: NWS Daily Summary

Daily Weather History Graph

Daily Weather History Graph

Search for Another Location

Airport:

Trip Planner

Search our weather history database for the weather conditions in past years. The results will help you decide how hot, cold, wet, or windy it might be!

Date:

Astronomy

Mar. 30, 2013 Rise Set
Actual Time 7:06 AM MDT 7:40 PM MDT
Civil Twilight 6:39 AM MDT 8:07 PM MDT
Nautical Twilight 6:08 AM MDT 8:39 PM MDT
Astronomical Twilight 5:35 AM MDT 9:11 PM MDT
Moon 11:48 PM MDT (3/30) 9:06 AM MDT (3/30)
Length of Visible Light 13h 28m
Length of Day
12h 34m
Waning Gibbous, 86% of the Moon is Illuminated
Mar 30
Waning Gibbous
Apr 2
Last Quarter
Apr 10
New
Apr 18
First Quarter
Apr 25
Full

Hourly Weather History & Observations

Time (MDT) Temp. Windchill Dew Point Humidity Pressure Visibility Wind Dir Wind Speed Gust Speed Precip Events Conditions
12:53 AM 46.9 °F - 23.0 °F 39% 30.05 in 10.0 mi Calm Calm - N/A   Clear
1:53 AM 46.0 °F - 21.9 °F 39% 30.05 in 10.0 mi Calm Calm - N/A   Clear
2:53 AM 44.1 °F 41.5 °F 23.0 °F 43% 30.05 in 10.0 mi SW 4.6 mph - N/A   Partly Cloudy
3:53 AM 42.1 °F - 23.0 °F 47% 30.06 in 10.0 mi Calm Calm - N/A   Mostly Cloudy
4:53 AM 39.9 °F - 21.0 °F 47% 30.06 in 10.0 mi Calm Calm - N/A   Clear
5:53 AM 43.0 °F - 24.1 °F 47% 30.06 in 10.0 mi Calm Calm - N/A   Clear
6:53 AM 41.0 °F - 24.1 °F 51% 30.08 in 10.0 mi Calm Calm - N/A   Clear
7:53 AM 43.0 °F - 24.1 °F 47% 30.10 in 10.0 mi Calm Calm - N/A   Clear
8:53 AM 50.0 °F - 27.0 °F 41% 30.10 in 10.0 mi Calm Calm - N/A   Clear
9:53 AM 55.9 °F - 27.0 °F 33% 30.08 in 10.0 mi Calm Calm - N/A   Clear
10:53 AM 61.0 °F - 28.0 °F 29% 30.06 in 10.0 mi ESE 4.6 mph - N/A   Clear
11:53 AM 63.0 °F - 27.0 °F 26% 30.06 in 10.0 mi Variable 3.5 mph - N/A   Clear
12:53 PM 66.0 °F - 26.1 °F 22% 30.04 in 10.0 mi West 8.1 mph - N/A   Clear
1:53 PM 70.0 °F - 26.1 °F 19% 30.01 in 10.0 mi West 10.4 mph - N/A   Clear
2:53 PM 71.1 °F - 24.1 °F 17% 29.98 in 10.0 mi West 10.4 mph 17.3 mph N/A   Partly Cloudy
3:53 PM 69.1 °F - 26.1 °F 20% 29.97 in 10.0 mi WNW 19.6 mph 32.2 mph N/A   Mostly Cloudy
4:53 PM 71.1 °F - 24.1 °F 17% 29.96 in 10.0 mi West 18.4 mph - N/A   Clear
5:53 PM 68.0 °F - 27.0 °F 21% 29.96 in 10.0 mi NW 15.0 mph 24.2 mph N/A   Mostly Cloudy
6:53 PM 64.9 °F - 27.0 °F 24% 29.98 in 10.0 mi West 13.8 mph - N/A   Partly Cloudy
7:53 PM 62.1 °F - 26.1 °F 25% 29.99 in 10.0 mi WNW 9.2 mph - N/A   Clear
8:53 PM 57.0 °F - 26.1 °F 30% 29.99 in 10.0 mi NW 4.6 mph - N/A   Clear
9:53 PM 54.0 °F - 27.0 °F 35% 29.99 in 10.0 mi WSW 6.9 mph - N/A   Partly Cloudy
10:53 PM 54.0 °F - 27.0 °F 35% 29.99 in 10.0 mi Calm Calm - N/A   Mostly Cloudy
11:53 PM 51.1 °F - 26.1 °F 38% 29.99 in 10.0 mi Calm Calm - N/A   Clear